Погода в Мэйчжоу

Китай     24°17′13″N   116°05′25″E
темп.,
°C
ветер,
м/с
пор.,
м/с
влажн.,
%
обл.,
%
осадки,
мм/ч
давл.,
гПа
погр.,
м
24 сентября, пт
пт2423:00+24юв119094 0.1 101627
02:00+24в119383 0.1 101512
05:00+23в11945 0.0 101511
08:00+26ссв00815 0.0 1016310
11:00+33всв125528 0.0 10151512
14:00+35ссз024152 0.0 10122406
17:00+29юз1160100 0.0 101114
20:00+27ююв23755 0.1 101372
25 сентября, сб
сб2523:00+24ю118916 0.8 101514
02:00+24юз11932 0.9 101413
05:00+23юв11960 0.0 101312
08:00+26юв01814 0.0 1014368
11:00+33ююз015429 0.0 10141392
14:00+33ссв1246100 0.1 10112134
17:00+29юв1271100 0.0 101150
20:00+26юв117520 0.0 101219
26 сентября, вс
вс2623:00+24ююв12850 0.0 101333
02:00+23ююв11900 0.0 101311
05:00+22юв11930 0.0 101311
08:00+26в11760 0.0 1014337
11:00+33ююв01490 0.0 10131231
14:00+35зсз12390 0.0 10101959
17:00+33зюз11490 0.0 100954
20:00+26ююв12690 0.0 101125
27 сентября, пн
пн2723:00+24юв12790 0.0 101239
02:00+23юв11860 0.0 101221
05:00+22юв11905 0.0 101111
08:00+26ю01735 0.0 1012314
11:00+32зюз11500 0.0 10111107
14:00+35з134218 0.0 10082265
17:00+33юз23500 0.0 1007133
20:00+26юв227477 0.0 100937
28 сентября, вт
вт2823:00+25ююв12850 0.0 101044
02:00+23юв11880 0.0 101034
05:00+22юв11880 0.0 101015
08:00+26ю11710 0.0 1011329
11:00+32юз22556 0.0 10101137
14:00+34зюз224538 0.0 10072365
17:00+32ююз23493 0.0 1005152
20:00+27ю127052 0.0 100723